Starlink 11381

operational
NORAD ID: 62094 Int'l Des: 2024-220 Owner: SPXS Country: US Constellation: starlink
LEOCIRCULAR

About Starlink 11381

Description loading...

Live Position

Loading 3D Globe...

Upcoming Passes

Altitude History

Altitude vs Time

uPlot chart will show altitude changes over time

Two-Line Element Set

1 62094U 24220G 26036.57817432 .00308840 00000-0 22949-2 0 9996
2 62094 43.0037 236.5618 0004375 271.2273 88.8094 15.71115736 69902
Epoch: Feb 5, 2026 • Age: 14 hours

Current Status

Altitude 357.3 km
Velocity 7.70 km/s
Sub-Earth Point -19.27°S, 22.71°E
Launch Date Nov 25, 2024
Age 1.1 years
Type internet

Technical Details

Classification Payload
Mass 960.00 kg
Dry Mass 910.00 kg
Total Mass 960.00 kg
Length 0.30 m
Diameter 4.10 m
Span 29.00 m
Shape Box + pan
Manufacturer SPXS
Bus Type Starlink V2MD
Phase Status In Orbit
Owner/State SPXS/US

Large Constellations

Loading constellations...